Temp
9 8 8 8 8 5 6 6 7 7 7 7 8 7 8 8 8 7 7 7 7 7 7 7 7 7 7 7 7 7 7 7 7 7 7 7 7 7 7 6 6 6 6
8 7 7 7 7 6 6 5 6 6 6 7 7 8 8 7 7 7 7 6 7 7 7 7 7 7 7 7 7 7 7 7 7 7 7 7 7 6 6 6 6 6 6
6 7 7 7 8 6 5 5 6 6 6 6 7 8 8 7 7 7 7 7 7 7 7 7 6 6 6 6 6 6 7 7 7 7 7 7 6 6 6 6 6 6 5
6 6 6 6 6 6 5 4 5 5 5 6 7 8 8 8 7 7 7 6 6 6 6 6 6 6 6 6 6 6 6 6 6 6 6 6 6 6 6 5 5 5 5
6 5 5 6 4 4 4 4 5 5 5 6 7 7 8 7 7 7 6 6 6 6 6 5 6 6 6 6 5 6 6 5 5 6 6 5 5 5 5 5 5 5 5
6 4 5 4 4 4 2 3 4 5 5 6 6 6 7 6 6 6 6 6 5 5 5 5 5 5 6 5 5 5 5 5 5 5 5 5 5 5 5 5 5 5 5
6 6 4 5 5 4 3 2 4 5 4 5 5 5 6 6 6 6 5 5 5 5 5 5 5 5 5 5 4 4 4 4 4 4 4 4 5 5 5 5 5 5 5
7 6 4 4 4 2 3 4 3 4 4 4 4 5 6 5 5 5 5 5 4 4 4 4 4 5 5 5 4 3 4 4 4 4 4 4 4 4 4 4 4 4 4
6 6 4 4 3 3 3 4 3 4 3 4 5 5 5 5 5 5 4 4 4 4 4 4 4 4 5 5 4 3 3 3 4 4 4 4 4 4 4 4 4 4 4
5 5 5 4 5 4 4 2 3 1 -1 2 4 4 4 4 4 4 4 4 3 3 3 3 3 3 3 4 4 3 3 3 3 3 3 3 3 3 3 3 3 3 3
5 5 5 5 5 4 4 4 2 1 1 0 3 3 3 3 3 3 3 3 3 3 3 3 2 2 2 4 3 2 2 2 2 2 2 2 2 3 3 3 3 3 3
5 5 4 5 5 4 4 4 2 1 2 -0 2 2 2 2 3 3 3 3 3 3 2 2 2 2 2 4 2 2 2 2 2 2 2 2 2 2 2 3 3 2 2
4 4 5 5 4 4 3 4 1 1 1 1 -1 -1 0 1 2 3 3 3 2 2 1 1 2 2 2 2 2 2 2 2 2 2 2 2 2 2 2 2 2 2 2
3 4 4 5 3 3 3 4 2 2 2 1 2 2 0 2 2 3 2 2 2 3 3 2 2 2 2 2 2 2 2 2 2 2 2 2 2 2 1 1 1 1 2
3 3 4 3 2 2 2 3 2 2 2 2 -0 -1 0 1 2 2 2 2 3 3 2 2 2 2 2 1 2 2 1 1 2 2 1 1 1 1 1 1 1 1 1
2 2 4 3 2 2 2 2 2 3 2 1 -1 -0 0 1 1 2 2 2 3 2 2 2 2 2 1 1 1 1 1 1 1 1 1 1 1 1 1 1 1 1 1
2 2 2 2 3 2 2 2 2 2 1 0 0 0 0 1 1 2 2 2 2 2 2 2 2 1 1 1 1 1 1 1 0 0 1 1 1 1 1 1 1 1 0
2 2 2 2 2 2 2 2 2 1 1 1 -1 -0 0 1 1 1 2 2 2 2 2 1 1 1 1 1 1 1 0 1 1 0 0 0 0 0 1 1 0 -0 -0
2 2 1 2 2 2 2 2 1 1 1 -1 -1 -0 0 1 1 1 1 2 2 1 1 1 1 1 1 1 1 0 0 0 0 0 1 1 0 0 0 0 0 0 -0
3 1 1 1 0 1 1 1 0 1 0 -1 -1 -0 0 1 1 1 1 2 1 1 1 1 1 1 1 1 1 1 1 0 0 1 1 0 0 -0 -0 0 -0 -0 -1
6 2 1 1 0 1 1 1 1 1 1 0 -1 -1 0 1 1 1 2 2 1 2 2 2 1 1 1 0 0 0 0 1 1 0 0 -0 -1 -0 0 -1 -2 -1 -1
5 5 4 4 3 2 1 1 0 0 1 0 1 1 1 1 2 2 2 2 2 2 2 2 1 1 1 0 0 -0 -0 -0 0 -0 -0 -1 -1 -1 -1 -1 -2 -2 -1
5 5 5 4 4 4 4 3 2 1 1 2 2 1 1 1 2 2 2 2 2 2 1 1 1 0 -0 -0 -0 -0 -0 -1 -1 -1 -1 -1 -2 -2 -2 -2 -2 -2 -2
5 5 4 4 4 4 4 3 3 3 3 3 2 2 1 1 2 2 2 2 2 2 1 1 0 -0 0 -1 -0 -0 -0 -1 -1 -1 -1 -1 -2 -2 -3 -4 -3 -3 -3
6 6 5 5 4 4 4 4 3 3 3 3 2 2 2 2 2 2 2 2 2 2 1 1 0 0 0 -1 -1 -1 -1 -1 -1 -1 -1 -2 -2 -2 -3 -4 -3 -4 -4
6 6 6 5 5 5 5 5 5 4 4 3 3 3 3 3 3 2 2 2 1 1 1 1 -0 -0 -1 -0 -1 -2 -1 -1 -1 -2 -2 -3 -2 -3 -3 -4 -4 -4 -5
Height
3137 3137 3137 3137 3134 3147 3149 3147 3150 3152 3152 3151 3151 3153 3152 3153 3154 3154 3155 3156 3158 3160 3160 3160 3161 3162 3163 3164 3165 3166 3167 3167 3167 3167 3166 3166 3166 3166 3166 3166 3166 3166 3166
3133 3135 3136 3135 3135 3140 3147 3148 3147 3148 3151 3149 3149 3149 3152 3153 3154 3155 3156 3158 3159 3159 3160 3161 3162 3163 3164 3166 3167 3168 3168 3168 3168 3169 3168 3167 3167 3167 3167 3167 3167 3167 3167
3131 3131 3132 3136 3135 3136 3141 3146 3145 3146 3148 3149 3147 3147 3150 3153 3154 3156 3157 3159 3159 3160 3160 3162 3163 3163 3166 3168 3169 3169 3168 3170 3169 3169 3169 3169 3168 3168 3167 3168 3167 3167 3167
3129 3129 3130 3135 3135 3136 3140 3141 3144 3145 3145 3146 3146 3146 3148 3151 3156 3155 3157 3159 3160 3160 3161 3162 3163 3165 3168 3170 3170 3170 3170 3170 3170 3170 3170 3170 3169 3169 3168 3168 3168 3168 3168
3128 3128 3129 3129 3129 3132 3128 3133 3133 3140 3141 3143 3143 3145 3146 3149 3152 3155 3156 3159 3160 3161 3162 3163 3164 3166 3168 3170 3170 3170 3170 3171 3171 3170 3171 3171 3170 3170 3169 3169 3169 3168 3168
3120 3126 3124 3122 3123 3124 3122 3123 3116 3133 3136 3139 3139 3141 3143 3147 3152 3154 3155 3158 3160 3161 3162 3163 3164 3166 3169 3169 3169 3170 3170 3170 3171 3170 3170 3170 3169 3170 3169 3169 3169 3169 3169
3114 3116 3115 3110 3114 3110 3113 3113 3112 3119 3129 3135 3139 3141 3143 3147 3151 3154 3157 3159 3161 3162 3163 3164 3165 3166 3168 3169 3169 3168 3169 3169 3170 3170 3170 3170 3170 3170 3169 3170 3170 3169 3170
3109 3110 3110 3107 3108 3104 3106 3101 3106 3115 3123 3130 3135 3139 3142 3146 3149 3152 3156 3159 3160 3162 3163 3165 3165 3165 3168 3169 3170 3170 3169 3170 3170 3170 3171 3171 3170 3169 3169 3170 3170 3169 3169
3104 3106 3108 3107 3106 3108 3103 3094 3100 3107 3109 3128 3132 3137 3139 3143 3147 3151 3155 3159 3161 3163 3165 3165 3165 3164 3166 3170 3171 3170 3170 3170 3170 3170 3170 3171 3170 3170 3170 3170 3170 3170 3170
3102 3104 3106 3107 3109 3108 3106 3095 3096 3101 3109 3124 3130 3133 3138 3142 3146 3151 3155 3158 3161 3163 3165 3165 3166 3165 3162 3166 3169 3170 3170 3170 3171 3171 3171 3172 3171 3171 3171 3171 3171 3170 3170
3099 3101 3103 3105 3106 3105 3108 3104 3101 3105 3108 3124 3130 3132 3137 3141 3145 3151 3154 3158 3161 3164 3165 3166 3167 3166 3163 3166 3168 3169 3170 3170 3170 3171 3171 3172 3172 3171 3171 3170 3170 3171 3170
3097 3098 3099 3101 3103 3103 3102 3098 3096 3106 3109 3118 3130 3134 3138 3140 3145 3151 3155 3158 3161 3163 3165 3166 3166 3166 3165 3166 3168 3168 3169 3170 3170 3171 3171 3171 3172 3171 3171 3171 3170 3170 3169
3094 3095 3097 3098 3099 3099 3097 3097 3097 3104 3110 3113 3124 3130 3135 3137 3144 3151 3156 3158 3161 3163 3164 3166 3166 3166 3165 3165 3166 3168 3169 3169 3169 3170 3171 3171 3172 3171 3171 3170 3169 3168 3167
3092 3092 3094 3096 3096 3097 3098 3100 3103 3108 3111 3117 3122 3126 3135 3141 3147 3150 3154 3157 3160 3162 3165 3166 3166 3165 3164 3165 3167 3167 3168 3168 3169 3170 3171 3171 3171 3171 3171 3170 3169 3168 3167
3090 3092 3092 3094 3096 3098 3101 3103 3106 3108 3113 3118 3122 3128 3137 3142 3147 3149 3152 3157 3160 3164 3164 3165 3165 3164 3164 3164 3165 3167 3168 3168 3168 3169 3170 3170 3170 3170 3169 3169 3168 3166 3164
3086 3089 3091 3092 3095 3098 3102 3104 3106 3111 3114 3118 3124 3130 3139 3144 3147 3148 3154 3158 3161 3162 3163 3163 3163 3163 3163 3163 3164 3164 3166 3167 3167 3168 3168 3169 3168 3167 3167 3165 3164 3163 3163
3083 3085 3090 3090 3093 3097 3099 3101 3105 3110 3115 3119 3125 3132 3137 3141 3146 3149 3155 3157 3159 3160 3161 3161 3162 3162 3162 3162 3163 3163 3164 3165 3165 3166 3166 3166 3165 3164 3163 3162 3161 3160 3160
3080 3084 3087 3089 3090 3095 3098 3101 3104 3109 3115 3119 3124 3130 3135 3141 3145 3149 3153 3155 3156 3158 3159 3160 3161 3161 3161 3161 3162 3162 3162 3163 3163 3163 3164 3164 3163 3162 3160 3159 3157 3156 3155
3077 3080 3085 3086 3089 3093 3096 3099 3103 3109 3113 3117 3123 3129 3134 3140 3143 3147 3150 3152 3153 3155 3157 3157 3158 3159 3159 3160 3159 3159 3159 3159 3160 3160 3159 3159 3159 3158 3157 3157 3154 3152 3150
3076 3080 3083 3086 3089 3091 3094 3097 3101 3105 3110 3116 3122 3127 3133 3138 3142 3146 3147 3149 3151 3153 3154 3154 3154 3155 3156 3157 3157 3157 3157 3157 3153 3154 3155 3155 3154 3155 3154 3151 3149 3147 3144
3081 3078 3081 3083 3087 3089 3091 3094 3100 3105 3111 3115 3121 3127 3132 3137 3140 3142 3144 3146 3148 3149 3150 3150 3150 3152 3152 3152 3152 3152 3152 3152 3151 3151 3149 3148 3148 3147 3147 3145 3144 3141 3139
3084 3083 3082 3084 3086 3088 3091 3095 3101 3106 3110 3115 3119 3124 3129 3133 3136 3137 3140 3143 3145 3146 3146 3146 3147 3148 3148 3147 3146 3144 3144 3145 3146 3147 3145 3142 3140 3137 3136 3135 3132 3131 3130
3085 3085 3086 3088 3090 3091 3093 3096 3101 3105 3110 3114 3118 3121 3125 3130 3132 3135 3138 3140 3141 3141 3141 3141 3142 3143 3143 3143 3140 3139 3135 3137 3138 3138 3138 3136 3135 3132 3131 3130 3128 3125 3123
3086 3086 3086 3088 3091 3093 3095 3098 3102 3106 3109 3112 3116 3121 3125 3127 3130 3133 3135 3136 3137 3138 3139 3138 3138 3138 3138 3139 3134 3133 3131 3131 3129 3129 3130 3128 3125 3124 3123 3121 3118 3115 3113
3085 3087 3087 3090 3094 3096 3098 3102 3104 3106 3110 3114 3118 3121 3123 3126 3127 3128 3130 3132 3133 3134 3135 3133 3133 3133 3134 3132 3130 3128 3126 3125 3123 3122 3120 3121 3118 3117 3116 3113 3111 3108 3105
3086 3086 3088 3091 3093 3096 3098 3100 3102 3105 3108 3111 3113 3117 3120 3121 3123 3124 3126 3128 3128 3128 3128 3127 3128 3127 3127 3125 3125 3122 3120 3118 3115 3114 3113 3113 3110 3111 3109 3106 3103 3101 3098
Wind_Speed
13 18 18 17 26 28 31 30 29 26 24 23 21 20 17 16 17 16 16 15 15 14 12 11 11 11 11 11 11 10 9 8 7 7 8 6 5 5 4 5 4 4 3
11 9 15 16 17 24 27 29 28 29 26 24 22 18 16 17 18 18 18 17 17 15 13 13 12 12 12 12 12 10 9 8 8 6 6 6 5 5 5 5 4 4 4
7 11 13 23 25 19 32 30 31 31 28 25 21 19 19 19 20 20 20 19 17 15 14 14 13 12 12 12 13 10 8 7 6 5 4 5 5 6 6 6 6 6 6
14 16 16 20 22 36 24 33 36 33 30 26 22 22 20 20 20 20 20 18 17 16 16 15 13 11 12 12 11 9 6 6 5 5 6 6 7 8 9 9 8 9 8
18 17 21 28 30 32 43 40 39 36 32 27 24 24 24 23 22 22 20 19 19 19 17 15 13 12 13 12 11 10 8 7 6 6 7 7 8 8 9 9 8 8 7
35 24 20 26 36 39 38 39 45 41 36 31 29 30 28 26 24 23 22 22 22 20 18 16 14 13 13 11 7 8 8 8 8 8 9 8 8 7 8 8 7 7 7
22 26 18 19 21 27 24 50 54 54 39 33 29 27 26 26 25 23 24 23 21 19 18 17 14 10 11 10 7 6 8 8 9 9 9 9 8 8 9 9 7 7 7
17 17 17 15 15 24 8 10 47 51 43 35 32 31 30 29 27 26 26 24 22 20 19 16 12 9 10 11 11 9 5 7 7 7 7 7 7 8 8 7 8 8 9
13 13 14 12 15 19 26 24 45 44 39 37 37 34 33 31 30 29 26 24 22 20 18 15 11 7 6 8 8 10 6 6 5 6 6 6 7 8 8 8 8 9 10
16 13 13 16 14 15 9 0 37 42 40 39 36 36 34 33 31 29 27 24 22 20 16 14 11 6 2 3 3 7 6 5 4 5 5 6 7 7 6 6 7 8 8
12 12 15 15 16 14 8 16 27 19 35 37 35 35 35 34 32 29 27 24 20 18 15 12 9 5 2 2 2 7 7 7 6 5 4 3 3 3 3 4 6 7 8
11 12 14 13 15 14 12 10 20 33 33 39 34 33 35 34 31 28 24 22 19 16 13 8 5 4 2 2 3 8 6 5 5 3 1 1 1 2 3 3 4 6 8
11 14 13 13 13 11 5 4 22 32 32 45 41 38 36 36 27 25 25 21 17 14 9 5 2 2 2 2 3 6 5 3 2 1 1 1 1 2 2 3 5 6 7
13 12 12 13 14 12 3 13 20 20 27 37 38 37 39 32 32 28 23 18 12 8 7 4 2 3 3 3 4 4 3 1 1 0 1 1 1 1 3 7 8 8 9
12 12 11 13 14 13 9 16 18 19 25 34 33 34 33 30 28 23 18 16 15 15 8 6 4 3 5 6 4 3 1 1 1 1 2 1 2 4 8 11 11 8 9
11 13 13 18 16 14 16 16 16 17 26 35 37 35 31 28 24 23 18 17 20 12 8 4 2 2 5 5 5 2 1 1 2 2 1 3 6 9 11 13 13 13 10
13 14 17 13 16 18 15 16 18 16 31 35 37 36 33 28 26 26 24 24 18 13 9 5 3 2 3 5 5 5 4 4 5 5 6 7 9 12 15 17 15 15 15
10 17 9 17 20 20 21 21 21 17 33 38 40 36 32 33 28 26 29 23 19 13 10 9 6 2 3 5 7 7 8 8 8 9 9 11 13 15 18 20 17 17 19
12 17 20 19 16 21 24 20 20 26 34 34 36 35 35 29 33 29 26 23 18 14 12 12 9 8 6 6 9 10 12 14 14 13 13 15 17 19 19 21 17 16 17
2 18 18 16 14 14 22 22 20 41 37 36 38 41 35 38 33 25 23 19 16 15 14 12 11 12 11 11 14 14 15 17 20 20 19 20 22 24 23 22 20 19 20
12 17 19 17 19 21 23 23 37 36 28 33 35 35 37 35 28 25 23 20 19 16 15 14 13 14 13 17 20 21 23 21 21 26 25 25 27 28 28 27 25 25 23
11 18 22 21 21 23 23 26 29 27 27 33 37 40 36 30 28 25 22 20 18 17 16 15 16 17 17 21 24 27 31 31 26 28 29 31 32 32 32 35 28 27 28
8 11 15 17 19 22 25 28 31 32 37 37 36 35 32 30 27 22 19 19 18 18 18 19 19 19 18 23 26 35 34 30 32 36 34 33 32 35 32 33 31 33 32
8 9 11 10 10 13 16 20 25 29 29 28 28 27 28 26 24 21 20 19 18 18 18 19 20 21 22 21 32 33 32 36 42 41 35 37 32 33 33 36 35 35 36
8 9 11 13 14 14 15 17 20 22 21 22 24 26 27 26 22 19 18 18 18 17 18 21 22 24 26 24 25 28 30 34 36 40 41 37 36 30 36 37 37 37 37
12 12 14 15 15 16 16 17 18 20 21 22 21 22 22 20 19 19 20 19 18 14 16 22 24 27 29 29 30 28 27 36 34 34 37 33 33 32 35 40 41 37 38
Wind_Direction
262 249 247 237 263 211 203 191 198 201 192 186 185 188 192 196 194 182 171 169 166 165 159 147 135 127 120 113 103 97 96 99 101 104 107 99 95 88 82 62 47 42 33
237 266 255 227 234 201 204 197 196 198 191 186 185 184 183 180 177 174 171 170 170 164 157 149 139 133 124 114 102 96 107 110 112 108 110 111 104 86 73 71 65 56 52
239 220 236 249 226 204 197 206 205 197 192 188 183 177 170 170 172 173 172 172 168 161 154 146 139 136 125 115 115 125 132 134 135 132 130 108 97 91 91 89 90 79 73
246 238 223 236 236 271 223 202 206 200 193 189 183 174 171 172 177 177 173 170 161 157 152 147 144 138 130 124 130 135 143 142 138 140 112 102 105 109 106 98 84 83 77
258 268 251 246 239 253 258 235 199 202 196 188 178 174 174 175 178 177 172 164 156 153 150 147 145 144 131 128 138 142 141 128 120 111 107 112 110 107 100 95 93 91 89
254 278 261 242 236 251 248 222 199 200 195 188 180 178 175 171 173 171 167 162 157 154 150 147 147 146 127 126 129 121 120 123 116 117 116 112 103 102 101 91 82 79 75
267 264 270 245 223 206 200 211 215 197 187 185 184 178 170 171 170 168 164 159 157 153 149 148 151 150 129 114 103 99 108 117 117 113 112 107 108 97 83 81 80 72 62
254 251 252 242 222 219 220 134 208 197 189 187 197 180 174 169 166 165 162 160 156 155 153 153 155 160 135 120 103 103 109 103 106 112 112 105 102 91 87 80 67 59 49
254 261 243 240 276 303 225 302 199 188 172 183 177 173 168 166 165 165 163 160 158 159 160 156 151 153 142 118 111 109 123 116 116 113 108 103 91 83 74 66 56 45 33
260 257 237 243 276 263 302 228 168 175 161 169 175 166 164 163 162 163 162 162 163 162 159 152 142 132 68 41 83 126 129 105 105 104 102 101 93 84 66 50 42 38 39
267 265 250 232 243 239 251 273 183 168 154 161 167 164 166 162 162 163 164 164 164 162 157 151 142 111 30 318 53 135 142 140 139 116 98 87 75 59 64 69 70 64 49
264 256 250 242 235 232 260 318 198 191 168 156 166 166 163 161 161 164 166 166 166 162 159 144 125 105 270 283 142 140 134 138 134 131 161 312 26 69 72 72 64 50 36
250 245 246 248 238 217 266 11 143 177 164 162 167 167 167 164 166 173 175 170 170 156 138 128 129 157 196 198 160 135 144 147 133 159 241 253 101 66 63 49 25 12 14
238 236 234 224 201 199 166 149 152 147 181 175 177 176 172 175 171 171 167 166 155 157 177 159 186 175 176 182 179 164 146 179 239 217 143 169 229 279 336 339 332 327 326
230 219 221 198 197 196 185 168 171 171 178 171 168 165 167 173 169 162 159 167 172 192 181 180 172 171 177 192 206 182 145 254 241 182 176 239 317 316 323 316 307 305 323
229 210 216 191 189 205 193 205 198 186 186 174 165 163 172 171 166 165 179 179 191 191 183 184 159 186 203 209 223 242 263 241 260 238 69 347 328 328 323 320 316 307 307
212 208 215 199 209 195 210 192 206 196 188 174 167 172 175 173 179 182 192 198 209 196 198 209 192 224 225 242 253 271 293 280 267 251 296 309 319 324 323 332 315 298 296
202 200 188 208 197 198 176 181 199 187 192 186 181 179 179 181 190 186 196 206 210 203 208 228 242 278 279 276 274 280 284 285 278 277 291 303 310 318 319 311 307 292 292
203 212 183 185 172 187 196 197 186 196 189 183 177 181 178 186 178 194 203 208 209 215 224 232 245 259 270 273 276 281 284 284 283 284 289 296 300 307 310 314 305 296 300
196 193 188 188 195 205 197 204 192 193 183 187 181 182 196 191 190 198 207 213 221 227 232 243 255 265 277 288 290 288 281 277 283 289 289 291 292 295 302 310 300 298 297
90 145 183 194 199 200 210 197 192 190 200 193 194 197 190 189 199 203 212 215 226 236 246 253 267 277 287 287 284 287 280 279 283 285 285 285 286 292 300 309 298 292 290
112 116 115 119 131 142 166 165 176 189 188 182 180 181 187 196 205 211 217 226 236 245 258 271 276 279 281 286 294 293 291 286 288 284 282 285 288 291 301 308 306 300 297
136 123 123 126 128 131 138 147 159 172 174 176 181 187 195 205 212 220 230 238 244 243 252 259 266 271 281 290 285 284 264 278 285 291 286 281 280 286 294 303 304 300 298
181 159 148 155 155 153 157 162 167 173 181 187 193 200 207 215 222 224 232 241 250 254 263 270 274 277 274 292 287 276 283 284 308 274 289 278 274 284 297 300 302 299 297
194 188 183 191 199 197 191 192 190 192 195 200 205 210 215 219 227 233 239 245 259 268 269 269 271 271 273 293 324 300 286 287 304 278 272 291 275 280 290 288 295 291 294
206 210 205 203 202 209 210 206 207 206 201 205 210 215 220 220 225 229 235 240 248 263 273 269 268 274 277 286 294 311 299 291 291 286 276 292 275 283 282 292 293 289 292